Regional Weather Roundup
Issued by NWS

Home | Current Version | Previous Version | Graphics & Text | Print | Product List | Glossary On
Versions: 1 2 3 4 5 6 7 8 9 10 11 12 13 14 15 16 17 18 19 20 21 22 23 24 25 26 27 28 29 30 31 32 33 34 35 36 37 38 39 40 41 42 43 44 45 46 47 48 49 50
000
ASUS43 KDTX 311710
RWRMI
MICHIGAN HOURLY REGIONAL WEATHER ROUNDUP
NATIONAL WEATHER SERVICE DETROIT/PONTIAC MI
100 PM EDT TUE MAR 31 2020

NOTE: "FAIR" INDICATES FEW OR NO CLOUDS BELOW 12,000 FEET WITH NO
SIGNIFICANT WEATHER AND/OR OBSTRUCTION TO VISIBILITY.

MIZ047>049-052>055-059>063-066>070-074>076-081>083-311800-
SOUTHEAST LOWER MICHIGAN

CITY           SKY/WX    TMP DP  RH WIND       PRES   REMARKS
ADRIAN         CLOUDY    40  36  86 NE7       29.99F
ALMA           CLOUDY    40  35  81 NE6       30.05S
ANN ARBOR      CLOUDY    41  34  76 NE5       29.99F
BAD AXE        CLOUDY    39  38  97 NE9       30.02S WCI  33
CARO           CLOUDY    40  37  86 N6        30.02R
DETROIT CITY   CLOUDY    43  36  76 NE6       30.00S
DETROIT        CLOUDY    42  36  79 N6        30.00F
FLINT          CLOUDY    42  36  79 N7        30.02S
GROSSE ILE     CLOUDY    41  37  83 NE8       29.99F
HILLSDALE      DRIZZLE   39  37  92 NE6       29.98F WCI  35
HOWELL         CLOUDY    39  37  91 N5        30.00F

CITY           SKY/WX    TMP DP  RH WIND       PRES   REMARKS
JACKSON        CLOUDY    39  35  86 N8        30.00S WCI  33
LAMBERTVILLE   CLOUDY    40  38  89 NE5       29.98F
LANSING        CLOUDY    39  34  82 NE9       30.03S WCI  33
LAPEER         DRIZZLE   39  39 100 NE5       30.02R
MASON          CLOUDY    38  34  85 N6        30.01F WCI  34
MONROE         CLOUDY    42  38  87 N5        29.99F
MT. CLEMENS    CLOUDY    44  43  96 VRB7      29.98F
PONTIAC        CLOUDY    40  35  83 NE5       29.98F
PORT HOPE        N/A     38  36  92 N10       30.02F WCI  31
PORT HURON     CLOUDY    43  37  81 NE8       30.00F
TRI CITIES     CLOUDY    39  31  72 NE14      30.05S WCI  31
MIDLAND        CLOUDY    41  33  73 NE6       30.04S
TROY           CLOUDY    42  37  83 N5        30.02S
SAGINAW HB     CLOUDY    37  36  93 NE10      30.04S WCI  30
$$
MIZ043>046-050>051-056>058-064>065-071>073-077>080-311800-
SOUTHWEST LOWER MICHIGAN

CITY           SKY/WX    TMP DP  RH WIND       PRES   REMARKS
BATTLE CREEK   CLOUDY    40  37  89 N7        30.01F FOG
BENTON HARBOR  CLOUDY    42  35  76 VRB5      30.03F
BIG RAPIDS     CLOUDY    39  33  77 N3        30.04F
COLDWATER      CLOUDY    39  37  93 N7        29.99F FOG     WCI  34
FREMONT        CLOUDY    40  35  82 E5        30.04F
HOLLAND        CLOUDY    40  35  83 NE3       30.04F
GRAND RAPIDS   CLOUDY    40  35  83 NE8       30.03F WCI  34
IONIA          CLOUDY    38  35  89 N7        30.03S WCI  32
KALAMAZOO      CLOUDY    41  35  79 N6        30.02F HAZE
LUDINGTON      CLOUDY    39  35  87 CALM      30.07S
MARSHALL       CLOUDY    40  36  83 N5        29.99F
MOUNT PLEASANT CLOUDY    41  34  75 N7        30.04S
MUSKEGON       CLOUDY    41  33  73 NE6       30.05F
SOUTH HAVEN    CLOUDY    41  35  80 NE6       30.02F
$$
MIZ016>042-311800-
NORTHERN LOWER MICHIGAN

CITY           SKY/WX    TMP DP  RH WIND       PRES   REMARKS
ALPENA         CLOUDY    39  35  86 NE9       30.08S WCI  33
BEAVER ISLAND  CLOUDY    37  30  75 NE6       30.12F WCI  32
BELLAIRE       CLOUDY    40  32  73 NE3       30.09S
CADILLAC       CLOUDY    39  34  81 N6        30.03F WCI  35
CHARLEVOIX     CLOUDY    37  31  79 N9        30.10S WCI  30
FRANKFORT      CLOUDY    39  32  76 N5        30.08F
GAYLORD        CLOUDY    36  32  85 N7        30.06S WCI  30
GRAYLING       CLOUDY    39  34  82 E6        30.05S WCI  35
HARBOR SPRINGS CLOUDY    38  33  82 NE6       30.09F WCI  34
HOUGHTON LAKE  CLOUDY    39  32  76 N6        30.04F WCI  35
MANISTEE       CLOUDY    40  33  76 N3        30.07F
OSCODA         CLOUDY    38  35  87 NE12      30.05F WCI  31
PELLSTON       CLOUDY    39  31  72 VRB7      30.11S WCI  34
ROGERS CITY    CLOUDY    38  33  82 N6        30.11S WCI  33
TRAVERSE CITY  CLOUDY    39  32  76 N9        30.07F WCI  33
$$
MIZ007>008-015-311800-
EASTERN UPPER MICHIGAN

CITY           SKY/WX    TMP DP  RH WIND       PRES   REMARKS
KINROSS        CLOUDY    36  30  79 NE7       30.11F WCI  30
MACKINAC ISLAN CLOUDY    35  32  90 NE6       30.11S FOG     WCI  30
NEWBERRY       CLOUDY    37  30  76 CALM      30.11F
S. S. MARIE    CLOUDY    40  30  67 NE6       30.11F
MUNISING         N/A     34  29  82 NE14      30.14F WCI  25
$$
MIZ004>006-011>014-085-311800-
CENTRAL UPPER MICHIGAN

CITY           SKY/WX    TMP DP  RH WIND       PRES   REMARKS
MANISTIQUE     CLOUDY    38  31  75 N5        30.12S WCI  35
ESCANABA       CLOUDY    37  28  70 NE6       30.14F WCI  33
MENOMINEE      CLOUDY    37  28  70 NE8       30.15S WCI  31
SAWYER-GWINN   CLOUDY    32  28  86 NE12      30.13S WCI  23
$$
MIZ001>003-009>011-084-311800-
WESTERN UPPER MICHIGAN

CITY           SKY/WX    TMP DP  RH WIND       PRES   REMARKS
IRON MOUNTAIN  CLOUDY    39  27  62 N9        30.11F WCI  33
HOUGHTON       CLOUDY    37  26  64 E10       30.16F WCI  30
COPPER HARBOR    N/A     35  30  82 VRB3      30.20S
IRONWOOD       CLOUDY    36  27  69 NE6       30.17F WCI  31
$$

ABBREVIATIONS USED IN REMARKS
   TC - TEMPERATURE IN CELSIUS
  WCI - WIND CHILL INDEX
   HX - HEAT INDEX
  VSB - VISIBILITY




USA.gov is the U.S. government's official web portal to all federal, state and local government web resources and services.